FW8807 Weather Reports


Display with metric or nautical units.
time (UTC)temp
F
wind
direction
speed
MPH
gust
MPH
rain 1hr
in
rain 24hr
in
rain mn
in
humidity
%
barometer
mb
20260505014018 59 225 1.0 3.0 0.00 0.12 0.06 83 1025.0
20260505013018 59 225 2.0 8.0 0.00 0.12 0.06 85 1025.0
20260505012018 58 225 2.0 6.0 0.00 0.12 0.06 87 1025.0
20260505011018 58 225 2.0 5.0 0.00 0.12 0.06 89 1024.8
20260505010019 57 225 1.0 5.0 0.00 0.12 0.06 90 1024.7
20260505005020 57 225 1.0 3.0 0.00 0.12 0.06 91 1024.6
20260505004018 56 225 1.0 6.0 0.00 0.12 0.06 92 1024.5
20260505003018 57 203 1.0 3.0 0.00 0.12 0.06 92 1024.4
20260505002018 57 0.0 3.0 0.00 0.13 0.06 92 1024.4
20260505001019 57 203 1.0 4.0 0.00 0.13 0.06 92 1024.3
20260505000018 58 0.0 1.0 0.00 0.13 0.06 92 1024.3
20260504235040 57 0.0 1.0 0.00 0.13 0.06 93 1024.3
20260504234038 56 0.0 0.0 0.00 0.13 0.06 93 1024.2
20260504233017 56 0.0 1.0 0.00 0.13 0.06 93 1024.2
20260504232018 56 0.0 0.0 0.00 0.14 0.06 93 1024.1
20260504231017 55 0.0 1.0 0.00 0.14 0.06 93 1024.1
20260504230141 55 0.0 0.0 0.00 0.14 0.06 92 1024.0
20260504225038 55 0.0 0.0 0.00 0.14 0.06 93 1024.0
20260504224121 55 0.0 0.0 0.00 0.14 0.06 93 1023.9
20260504223017 55 0.0 0.0 0.00 0.14 0.06 93 1023.8
20260504222017 55 0.0 1.0 0.01 0.14 0.06 92 1023.7
20260504221019 54 0.0 3.0 0.01 0.14 0.06 93 1023.7
20260504220018 54 0.0 0.0 0.01 0.14 0.06 92 1023.5
20260504215018 54 0.0 0.0 0.01 0.14 0.06 92 1023.5
20260504214039 54 0.0 0.0 0.01 0.14 0.06 92 1023.4
20260504213038 54 0.0 0.0 0.01 0.14 0.06 92 1023.3
20260504212019 54 0.0 0.0 0.01 0.25 0.05 92 1023.1
20260504211017 54 0.0 0.0 0.01 0.25 0.05 92 1023.0
20260504210019 54 0.0 0.0 0.01 0.25 0.05 92 1022.7
20260504205017 54 0.0 0.0 0.01 0.25 0.05 92 1022.6
20260504204019 54 0.0 0.0 0.01 0.25 0.05 92 1022.6
20260504203017 54 0.0 0.0 0.01 0.25 0.05 92 1022.6
20260504202018 54 0.0 0.0 0.00 0.25 0.04 92 1022.5
20260504201017 54 0.0 0.0 0.00 0.25 0.04 92 1022.4
20260504200017 54 0.0 0.0 0.00 0.25 0.04 92 1022.3
20260504195019 54 0.0 0.0 0.00 0.25 0.04 92 1022.4
20260504194018 54 0.0 0.0 0.00 0.25 0.04 92 1022.3
20260504193037 54 0.0 0.0 0.00 0.25 0.04 92 1022.2
20260504192017 53 0.0 0.0 0.00 0.28 0.04 92 1022.1
20260504191019 53 0.0 0.0 0.02 0.28 0.04 91 1022.0
20260504190038 53 0.0 0.0 0.02 0.28 0.04 91 1022.0
20260504185017 54 0.0 0.0 0.02 0.28 0.04 91 1022.0
20260504184017 54 0.0 0.0 0.02 0.28 0.04 91 1021.9
20260504183017 54 0.0 0.0 0.02 0.28 0.04 91 1021.9
20260504182017 54 0.0 0.0 0.02 0.28 0.04 91 1021.8
20260504181017 54 0.0 0.0 0.01 0.27 0.02 91 1021.7
20260504180037 54 0.0 0.0 0.01 0.27 0.02 91 1021.7
20260504175017 54 0.0 0.0 0.00 0.26 0.02 91 1021.8
20260504174200 54 0.0 0.0 0.00 0.26 0.02 91 1021.8
20260504173039 54 0.0 0.0 0.01 0.26 0.02 91 1021.8
20260504172018 53 0.0 0.0 0.02 0.26 0.02 91 1021.9
20260504171017 53 0.0 0.0 0.02 0.26 0.02 90 1021.9
20260504151037 54 0.0 0.0 0.00 0.40 0.00 89 1021.9
20260504141019 54 0.0 0.0 0.00 0.40 0.40 88 1021.4
20260504081016 61 270 1.0 6.0 0.00 0.46 0.34 71 1017.8
20260504045016 66 270 4.0 11.0 0.00 0.50 0.34 66 1016.0
20260504044016 66 225 4.0 13.0 0.00 0.50 0.34 64 1015.9
20260504043016 66 248 4.0 15.0 0.00 0.50 0.34 65 1015.9
20260504042016 66 248 4.0 13.0 0.00 0.50 0.34 65 1015.7
20260504041018 66 248 4.0 10.0 0.00 0.50 0.34 66 1015.8
20260504040037 65 248 3.0 10.0 0.00 0.50 0.34 68 1015.7
20260504035016 65 225 3.0 11.0 0.00 0.50 0.34 69 1015.8
20260504034016 65 225 4.0 13.0 0.00 0.50 0.34 68 1015.8
20260504033018 65 248 3.0 14.0 0.00 0.50 0.34 70 1015.7
20260504032018 64 248 3.0 11.0 0.00 0.50 0.34 71 1015.7
20260504031039 64 248 3.0 12.0 0.00 0.50 0.34 73 1015.8
20260504030018 64 248 3.0 9.0 0.00 0.50 0.34 73 1015.8
20260504025018 64 248 3.0 10.0 0.00 0.50 0.34 74 1015.9
20260504024018 64 225 3.0 8.0 0.00 0.50 0.34 74 1015.9
20260504023041 64 248 4.0 10.0 0.00 0.50 0.34 72 1015.9
20260504022018 64 248 3.0 9.0 0.00 0.50 0.34 75 1016.0
20260504021018 63 270 2.0 6.0 0.00 0.50 0.34 76 1016.0
20260504020040 63 248 3.0 10.0 0.00 0.50 0.34 75 1016.0
20260504015038 63 225 3.0 8.0 0.00 0.50 0.34 74 1015.9